LEO VANTAGE 1 (43113 NORAD) Tracking and Keplerian Element Data

This shows tracking and keplerian element data for the satellite.

Feedback or suggestion? Click here.




ElementValue
Catalog43113
NameLEO VANTAGE 1
Epoch Orbit6454
Epoch Day113.59428277
Epoch Year2019
RAAN174.5944
Inclination99.4351
Eccentricity0.0006237
Argument of Perigee80.0648
Mean Anonmoly280.1202
Mean Motion13.6984456
Decay Rate-5.5E-07
L11 43113U 18004C 19113.59428277 -.00000055 00000-0 -12402-4 0 9999
L22 43113 99.4351 174.5944 0006237 80.0648 280.1202 13.69844560 64543

Live tracking and technical data element details for LEO VANTAGE 1 (NORAD 43113). LEO VANTAGE 1 can be tracked NOW for your location showing map with azimuth and elevation plus other details from your city location.

Track the satellite on the map from your city or location and see movement details for azimuth, elevation, latitude, longitude, range, height, and movement on the map or in text.







IsCatalogInMostPopularTable: catalog: 43113, numindb: 204
Update: records affected: 1



GetName: 43113 LEO VANTAGE 1

Hit Count: updated at: Thu, 25 Apr 2019 19:40:55 GMT